Temp_Advection
nan nan nan nan nan nan nan nan nan nan nan nan nan nan nan nan nan nan nan nan nan nan
nan 0 -0 0 0 -0 -0 0 0 0 0 0 0 -0 -0 0 0 0 0 -0 -0 nan
nan 0 0 0 -0 -0 0 0 0 0 0 -0 0 0 0 0 0 -0 0 -0 -0 nan
nan 0 0 -0 -0 0 -0 -0 0 -0 -0 0 0 0 0 -0 -0 0 0 -0 -0 nan
nan 0 -0 0 0 -0 -0 0 -0 -0 0 0 0 0 0 -0 0 0 -0 0 -0 nan
nan 0 0 0 0 0 0 -0 -0 -0 0 0 0 0 0 0 0 0 -0 -0 -0 nan
nan 0 0 -0 0 0 0 0 -0 -0 0 0 0 0 -0 0 0 -0 0 -0 -0 nan
nan 0 0 0 0 0 0 0 -0 -0 -0 0 0 0 0 0 -0 -0 -0 -0 0 nan
nan 0 -0 0 1 0 0 0 -0 -0 0 0 0 0 -0 -0 -0 -0 -0 0 0 nan
nan 0 0 1 0 0 0 0 -0 -0 0 0 0 -0 -0 -0 -0 0 0 0 0 nan
nan 0 0 0 0 0 0 -0 -0 -0 0 0 0 -0 -0 -0 -0 0 0 -0 0 nan
nan -0 0 0 0 -0 -0 0 0 0 0 0 0 -0 -0 -0 0 0 -0 -0 -0 nan
nan 0 1 1 -0 0 0 0 0 0 0 0 0 -0 -0 -0 0 0 -0 -0 0 nan
nan nan nan nan nan nan nan nan nan nan nan nan nan nan nan nan nan nan nan nan nan nan
Wind_Speed
19 17 17 15 12 12 14 16 17 15 13 12 12 10 13 11 11 14 12 10 8 4
18 16 14 13 13 11 14 13 16 18 18 16 14 12 13 14 12 11 10 11 10 10
19 16 14 14 13 10 9 14 15 16 17 18 16 15 14 14 12 10 9 9 11 11
18 17 15 12 10 9 9 9 12 14 14 17 17 17 18 16 14 13 11 10 10 11
18 16 17 15 12 11 12 12 12 12 14 16 15 15 17 17 15 16 16 15 15 13
19 18 17 16 14 14 13 14 15 13 12 16 18 16 14 16 15 16 17 16 15 15
22 20 19 17 20 16 15 16 17 16 14 14 15 15 17 17 16 16 17 17 17 16
22 18 18 24 12 21 19 17 19 18 16 14 14 13 13 12 13 14 16 17 17 15
22 21 17 21 16 18 19 19 20 22 16 15 15 14 13 13 13 12 13 13 14 16
17 19 15 22 20 22 24 21 18 14 15 17 16 15 15 13 12 10 11 12 11 12
22 22 20 23 20 19 17 16 15 17 15 15 15 14 13 13 13 12 6 9 13 12
17 17 18 25 23 22 19 16 14 11 11 10 9 9 9 9 9 13 17 15 14 15
16 19 22 22 24 19 12 10 11 10 10 9 9 8 7 6 8 8 8 9 9 10
19 19 22 18 13 9 10 10 10 10 9 8 8 8 8 9 9 9 10 10 10 11
Wind_Direction
228 236 242 239 237 244 242 248 240 239 238 241 245 247 235 234 240 246 245 247 246 248
227 235 232 232 237 254 244 233 228 237 242 244 244 252 244 232 234 240 242 247 250 248
224 233 237 229 242 242 231 237 230 232 240 240 242 249 246 232 237 244 246 254 255 255
227 234 238 236 243 244 233 235 240 250 240 236 239 244 243 237 242 246 248 255 259 263
223 225 231 239 237 238 248 246 245 247 240 236 239 243 236 234 243 253 254 261 261 257
223 226 226 229 235 240 253 255 255 248 235 238 234 247 238 243 250 255 262 260 257 253
226 225 227 227 243 239 244 258 255 244 237 235 235 241 247 250 253 254 255 254 258 256
216 225 236 249 264 239 244 247 246 243 238 246 254 253 258 256 253 251 249 252 257 249
214 230 264 247 238 235 246 259 252 245 238 257 262 255 252 261 262 256 256 255 257 258
229 243 248 232 232 247 248 247 237 244 243 266 259 252 253 258 260 259 255 249 250 263
226 246 235 230 231 243 245 247 243 247 254 254 254 251 250 246 249 254 225 254 261 261
217 220 237 234 237 236 237 238 243 239 235 232 237 245 254 259 259 255 253 254 251 253
224 236 242 232 233 225 199 205 210 217 221 230 237 235 238 241 233 239 245 247 252 250
238 237 226 217 199 188 181 193 203 210 220 224 230 243 255 257 248 243 244 246 251 253
Height
1582 1584 1585 1586 1588 1589 1590 1591 1593 1594 1595 1596 1598 1599 1599 1600 1601 1601 1602 1602 1602 1602
1580 1582 1583 1585 1586 1586 1587 1588 1590 1591 1593 1594 1595 1597 1597 1598 1599 1599 1599 1600 1600 1600
1578 1579 1581 1582 1584 1584 1585 1586 1587 1589 1590 1592 1593 1594 1595 1596 1597 1598 1598 1598 1598 1598
1574 1577 1578 1580 1581 1582 1583 1584 1585 1586 1587 1589 1590 1591 1591 1593 1595 1595 1596 1596 1596 1596
1570 1573 1575 1577 1579 1580 1582 1582 1583 1584 1585 1586 1587 1589 1589 1590 1591 1593 1593 1594 1594 1594
1567 1569 1571 1573 1576 1577 1579 1581 1581 1581 1582 1583 1585 1586 1586 1588 1589 1589 1590 1590 1590 1591
1564 1565 1568 1570 1572 1573 1575 1577 1579 1580 1580 1580 1581 1582 1583 1584 1585 1585 1586 1586 1587 1588
1559 1562 1564 1564 1565 1568 1572 1574 1576 1577 1578 1578 1579 1579 1580 1580 1580 1581 1581 1581 1583 1583
1553 1556 1558 1560 1560 1565 1567 1569 1569 1572 1572 1574 1575 1575 1576 1577 1577 1577 1577 1578 1579 1580
1549 1551 1553 1555 1558 1561 1563 1563 1566 1566 1566 1569 1571 1572 1572 1573 1574 1573 1574 1575 1576 1576
1544 1546 1548 1553 1555 1557 1558 1560 1562 1563 1564 1564 1566 1567 1568 1569 1570 1570 1571 1573 1572 1572
1539 1542 1545 1547 1551 1552 1554 1556 1559 1560 1561 1562 1563 1564 1564 1564 1564 1565 1568 1568 1569 1569
1536 1539 1541 1543 1546 1547 1550 1553 1556 1557 1559 1559 1560 1561 1562 1562 1562 1563 1565 1566 1567 1567
1532 1535 1538 1539 1542 1545 1548 1552 1554 1556 1557 1557 1558 1558 1558 1559 1560 1561 1562 1562 1564 1565